Погода в Барабинске

Погода в Барабинске : погода сейчас, прогноз погоды и архив. Всё, что Вы хотите узнать о погоде в Барабинске!

Хотите узнать прогноз погоды в Барабинске? Тогда Вам сюда: Погода в Барабинске

Поиск расширенной информации на нашем сайте:

Другие новости

Новости СМИ2

Главная страница сайта

Новости сайта

03.07.2017

Напоминаем, что на нашем специализированном сайте Метеоцентр.Азия вы можете получить высокодетализированные автоматические прогнозы погоды по пунктам России, СНГ и мира в авиационном формате (включающие направление и скорость ветра, видимость, явления погоды, количество и форму облачности, нижнюю и верхнюю границу облачности).

Рекомендуем: Для клиентов Вешняков Компьютерная скорая помощь в тушино по филям.

Погода в Барабинске - сегодня

Время (UTC), дата Ветер
(°,м/с) 
Видим.   Явления Облачность Т
(°С)
Тd
(°С)
f(%) Тe
(°С)
Pmin
(гПа)
dP
(гПа)
Po
(мм)
O2
(г/м3)
Тmin Tmax R s Состояние
почвы
18 15.06.18 180 (Ю) 20000 м  {ливн. осадки}  6/0 верхняя 
[Ci]
+13.6 +10.7 83 +16  1005.6  0.4  744  283           
21 15.06.18 260 (З) 20000 м    8/0 средняя, верхняя 
[Ac trans|Ci fib]
+11.8 +10 89 +14  1005.5  -0.2  743  285           
00 16.06.18 250 (З) 20000 м    6/0 средняя, верхняя 
[Ac As|Ci fib]
+14.1 +12.8 92 +20  1005.7  0.3  744  282  +11.3    0.3    влажная 
03 16.06.18 210 (ЮЗ) 20000 м    10/10 600 м кучево-дожд. 
[Cb calv]
+17.8 +13 73 +25  1006.2  0.7  744  279           
09 16.06.18 300 (СЗ) 20000 м    9/9 600 м кучево-дожд. 
[Cb calv]
+17.7 +8.5 55 +19  1008.1  0.6  746  281           
12 16.06.18 170 (Ю) 2{11}  20000 м  {ливн. осадки}  8/5 600 м кучево-дожд., средняя 
[Cb calv|Ac trans]
+17.6 +9.4 59 +19  1008.3  0.2  746  281    +18.6     
15 16.06.18 170 (Ю) 20000 м    8/8 600 м кучево-дожд. 
[Cb calv]
+16.3 +10.1 67 +19  1008.5  0.1  746  282           
18 16.06.18 тихо ()   20000 м    9/9 600 м средняя 
[Sc|Ac trans]
+12.2 +9.5 84 +13  1008.5  -0.1  746  286           
21 16.06.18 тихо ()   20000 м    4/0 средняя 
[Ac trans]
+10 +8.8 92 +10  1007.9  -0.7  745  288           
00 17.06.18 тихо ()   20000 м    3/0 средняя 
[Ac trans]
+12 +11.1 94 +15  1007  -0.8  745  285  +8.6        влажная 
03 17.06.18 140 (ЮВ) 20000 м    3/0 верхняя 
[Ci fib]
+17.7 +10.7 64 +21  1006.8  0.1  745  280           
06 17.06.18 110 (В) 20000 м    9/5 600 м средняя, верхняя 
[Cu med, cong|Ac trans|Ci]
+20 +8.9 49 +20  1005.7  -1  744  278           
09 17.06.18 170 (Ю) 20000 м    9/9 600 м кучево-дожд. 
[Cb calv]
+20.2 +10.2 53 +22  1004.5  -1.2  743  277           
12 17.06.18 300 (СЗ) 20000 м  гроза без осадков  10/10 600 м кучево-дожд. 
[Cb calv]
+14.9 +12.9 88 +20  1004.4  -0.3  743  281    +20.9       
18 17.06.18 170 (Ю) 20000 м  в посл. час ливневой дождь{гроза}  5/5 600 м кучево-дожд. 
[Cb calv]
+11.8 +10.9 94 +15  1003.5  -1.3  742  285           
21 17.06.18 тихо ()   20000 м    8/3 600 м кучево-дожд., верхняя 
[Cb calv|Ci fib]
+11.1 +10.2 94 +13  1004.3  0.7  743  286           
00 18.06.18 тихо ()   20000 м  {туман}  8/5 600 м кучево-дожд., средняя 
[Cb calv|Ac trans]
+11 +10 94 +12  1003.7  -0.6  742  286  +8.8      мокрая 
03 18.06.18 330 (СЗ) 20000 м  слаб. ливневой дождь  10/10 600 м кучево-дожд. 
[Cb calv]
+13.3 +11.8 91 +18  1003.9  0.3  742  283           
06 18.06.18 350 (С) 20000 м  слаб. ливневой дождь  9/9 600 м кучево-дожд. 
[Cb calv]
+15.5 +11.9 79 +20  1003.8  742  281           
09 18.06.18 340 (С) 20000 м  {ливн. осадки}  9/9 600 м кучево-дожд. 
[Cb calv]
+18 +9.9 59 +20  1003.2  -0.4  742  279           
12 18.06.18 320 (СЗ) 20000 м  {ливн. осадки}  9/9 700 м кучево-дожд. 
[Cb calv]
+17.8 +11.6 67 +22  1002.2  -1.1  741  278    +18.5  0.8     
15 18.06.18 310 (СЗ) 20000 м    9/5 600 м кучево-дожд., средняя 
[Cb calv|Ac trans]
+15.6 +12.1 80 +21  1001.6  -0.6  741  280           
18 18.06.18 290 (З) 20000 м    3/0 средняя 
[Ac trans]
+12.4 +11.3 93 +16  1000.6  -1.1  740  283           
21 18.06.18 тихо ()   4000 м  дымка  ясно 
+8.4 +7.4 93 +8  1000.4  -0.5  740  288           
00 19.06.18 040 (СВ) 2000 м  в посл. час туман  3/0 верхняя 
[Ci fib]
+11.4 +10.6 95 +15  999.7  -0.5  739  284  +7.4        мокрая 
Время (UTC), дата Ветер
(°,м/с) 
Видим.   Явления Облачность Т
(°С)
Тd
(°С)
f(%) Тe
(°С)
Pmin
(гПа)
dP
(гПа)
Po
(мм)
O2
(г/м3)
Тmin Tmax R s Состояние
почвы

Для получения пояснительной информации подведите курсор к названию столбца.

ПОГОДА в Барабинске - архив

Всё, что Вы хотите узнать о погоде в Барабинске - удобно и подробно!

Выберите нужную дату (начиная с 1 января 2015* года) и нажмите кнопку "Найти".
Будут отображены архивные сводки погоды по пункту Барабинск, начиная с указанной даты.


Отображать данные в формате CSV (для использования в таблицах Excel)


Внимание! Наш архив погоды предназначен исключительно для личного некоммерческого использования в познавательных целях. Если Вам необходимы официальные справки о состоянии погоды (для производственных, юридических, коммерческих и т.п. целей), обращайтесь в органы Росгидромета.

*Примечание: данная дата относится к архиву по метеостанциям СССР (Россия, СНГ, Балтия).
Архив по метеостанциям Зарубежной Европы и Азии (кроме Китая) хранится 10 дней, по другим регионам земного шара (Китай, Африка, Америка, Австралия, Океания) - 1 день.

Барабинск - район местоположения метеостанции


Название, широта, долгота, высота метеостанции:
Барабинск 55.3°ш. 78.4°д. 120 м над ур. моря [Российская Федерация]

Дополнительная информация

В oтличие oт бoльшинства пoгoдных сайтoв мы публикуем пoдрoбную метеoинфoрмацию в детальнoм прoфессиoнальнoм фoрмате.

Характеристики температуры и влажнoсти вoздуха измеряются на высoте 2 м в тени вдали oт зданий и деревьев.
Скoрoсть ветра измеряется на высoте 10 м (на урoвне рoста челoвека скoрoсть ветра ниже в 1.5-2 раза). Если метеoстанция нахoдится в гoрoде или в лесу, тo скoрoсть ветра занижена на 2-4 м/с пo сравнению с oткрытым местoм. Скoрoсть ветра над акватoриями крупных рек и oзёр, а также на вершинах хoлмoв на 2-5 м/с выше, чем в oбычных услoвиях.
Атмoсфернoе давление в разных тoчках местнoсти мoжет значительнo oтличаться oт давления на метеoстанции, в зависимoсти oт услoвий рельефа (при пoдъёме на 10 м давление пoнижается примернo на 1 мм рт.ст.).